Theta_e
342 342 342 344 345 347 348 347 349 348 347 347 346 345 340 344 344 342 345 345 343 346 347 347 347 348 347 347 348 349 349 348 351 350 348 346 345 346 346 344 341 339 339
344 344 344 346 345 347 348 346 348 349 346 346 346 345 343 341 343 345 344 345 346 349 346 346 347 347 348 344 342 341 345 344 346 348 345 342 340 343 344 344 343 342 341
342 344 344 346 347 346 347 347 346 349 346 344 343 345 344 340 345 346 345 346 346 347 345 346 346 339 337 337 341 342 344 343 343 345 346 341 338 339 342 344 343 342 341
342 342 344 346 347 346 346 346 344 348 346 344 341 337 343 338 345 345 347 349 347 345 346 346 337 333 331 333 339 341 343 343 343 344 345 345 340 340 342 343 345 341 342
342 342 344 345 346 347 347 346 345 346 347 346 340 338 339 341 343 346 347 349 345 345 345 337 337 330 329 333 338 339 340 343 344 345 345 344 345 345 345 343 344 342 342
342 342 343 345 346 347 347 348 347 346 346 347 343 341 344 345 345 345 348 344 345 344 340 337 338 330 329 330 328 330 336 339 339 343 344 344 342 341 339 340 338 339 341
342 342 343 344 346 346 347 347 348 346 345 345 346 344 343 344 344 345 344 344 344 345 338 338 339 332 331 334 334 332 331 329 326 325 335 341 343 342 339 338 338 339 342
342 342 343 344 346 346 347 346 347 345 344 343 347 347 348 346 347 346 344 344 346 342 339 339 340 336 335 334 332 332 330 326 320 320 327 337 343 340 341 340 338 336 337
342 342 344 345 345 346 346 344 344 342 342 341 346 348 348 350 349 348 347 344 347 345 341 339 340 340 338 337 335 329 326 320 318 319 322 328 341 340 338 337 338 338 339
342 343 344 344 345 344 341 340 339 339 341 341 343 346 347 349 351 351 350 348 346 347 347 342 339 340 339 338 337 327 320 318 315 316 319 323 329 332 332 332 333 335 336
342 343 344 343 343 341 339 338 336 337 340 342 341 342 345 349 351 351 351 348 348 347 348 346 339 341 341 339 337 325 318 313 311 314 319 328 331 333 332 333 332 331 332
342 343 343 342 343 341 339 338 338 339 340 341 345 348 350 351 352 353 350 348 347 348 346 347 339 340 342 340 338 324 316 310 310 314 322 328 329 330 331 330 329 329 327
342 342 343 342 342 340 338 339 340 341 344 345 345 346 348 349 352 351 352 350 350 350 348 345 339 339 341 340 339 324 317 311 311 312 318 321 322 322 323 323 320 318 316
343 343 343 343 343 342 339 339 340 340 342 345 348 348 350 351 351 352 354 355 351 350 348 349 342 339 342 340 339 325 317 311 310 310 312 313 315 315 314 313 313 312 311
344 343 343 344 343 343 340 339 338 339 340 342 342 343 346 348 346 346 348 352 350 350 347 346 342 340 340 339 339 329 320 315 311 310 310 310 311 311 311 310 309 308 309
344 344 343 343 344 343 344 343 340 339 340 341 342 345 346 346 349 350 351 350 353 352 351 348 345 339 339 339 339 335 322 319 314 310 309 309 309 309 309 309 309 308 308
343 344 344 344 344 344 343 343 344 344 344 345 348 349 350 351 352 353 352 354 353 354 353 350 348 344 339 339 340 337 328 321 318 313 309 309 309 308 308 309 308 307 306
344 344 345 348 348 347 345 345 345 345 347 348 350 352 354 356 356 355 354 355 355 356 354 351 349 348 343 338 339 339 334 323 320 317 311 309 309 309 309 308 307 307 306
346 346 344 344 341 350 350 347 348 348 350 353 356 356 356 359 357 356 356 355 353 354 353 352 351 349 347 339 338 338 337 329 322 319 313 309 309 309 309 307 306 304 304
349 337 339 334 334 342 353 353 356 357 357 356 353 356 359 357 359 357 356 355 354 353 351 351 351 349 348 342 338 336 339 333 323 321 315 310 310 309 308 307 305 304 303
354 353 352 353 354 357 357 355 353 352 352 352 352 353 354 356 356 357 357 357 356 354 351 351 350 348 345 342 339 337 337 335 324 321 315 311 310 309 308 306 305 302 302
360 359 358 357 355 352 354 351 355 354 354 352 352 353 353 353 353 352 353 354 337 334 337 338 344 350 348 342 340 337 338 337 325 321 316 311 310 309 308 306 304 302 301
356 356 355 354 353 353 354 356 354 353 353 353 352 352 352 353 352 350 349 334 337 338 338 337 335 336 340 346 340 338 339 336 324 320 316 312 310 309 308 306 304 301 301
354 352 351 350 349 351 353 352 346 343 341 340 338 339 340 341 335 334 337 337 337 338 338 336 333 332 335 338 340 338 338 325 321 318 316 312 310 309 307 306 304 301 301
355 354 353 351 350 350 349 349 348 344 341 339 338 338 339 338 334 335 338 337 337 336 338 335 334 332 330 335 334 338 331 322 320 318 319 312 310 308 306 305 303 301 300
356 355 355 355 355 355 354 354 352 351 349 345 341 339 339 339 339 340 340 338 337 336 338 336 333 335 333 334 335 336 327 325 327 327 318 313 310 309 306 304 302 301 300
Wind_Speed
29 27 26 25 26 24 22 19 13 12 12 10 8 10 11 8 8 10 8 8 8 7 6 8 7 9 10 11 12 12 12 12 11 9 11 11 10 10 11 8 5 4 7
28 25 23 22 24 25 23 18 15 13 11 12 12 10 13 11 10 8 9 9 8 7 6 5 7 8 9 10 9 10 9 9 9 9 9 8 7 9 9 9 7 5 6
32 28 26 24 23 25 23 19 16 13 11 11 14 15 17 15 10 9 9 9 8 6 7 7 6 7 9 10 9 7 7 8 9 8 7 8 9 7 8 8 7 7 5
31 31 29 26 24 22 21 19 17 13 12 10 7 16 21 17 14 11 9 7 5 5 6 6 6 8 9 9 8 8 10 10 9 8 8 8 8 8 5 4 4 5 5
32 31 29 26 25 23 21 18 17 15 13 10 8 14 19 17 14 10 8 9 7 7 5 4 6 8 7 7 7 8 9 8 7 6 8 8 7 6 5 6 5 7 9
32 30 29 27 26 25 22 19 18 17 17 14 14 15 15 15 12 10 10 9 9 7 7 4 5 6 5 5 6 6 6 7 8 8 8 8 8 7 7 6 6 4 3
31 30 29 27 26 27 24 21 20 19 20 18 16 15 14 14 13 12 11 10 11 9 9 4 4 5 6 7 8 8 10 11 11 11 10 8 8 6 4 5 6 5 5
30 28 27 26 26 27 25 23 21 21 22 22 19 17 15 14 14 13 12 12 12 11 11 7 5 5 7 8 9 11 13 14 12 10 10 9 9 8 8 8 8 9 10
31 28 26 26 27 28 27 25 23 23 23 25 24 21 19 16 15 15 16 15 15 14 13 10 8 6 7 9 11 12 13 12 10 9 9 8 9 10 8 9 8 8 8
30 28 28 27 27 28 27 27 25 25 24 25 26 24 20 18 16 16 16 17 17 17 15 14 11 8 9 11 13 14 12 10 9 10 8 6 4 5 5 5 6 5 9
30 30 30 30 29 28 27 28 27 27 26 25 24 24 23 19 19 18 18 18 19 19 18 16 14 10 11 12 13 14 11 9 7 7 7 6 6 4 5 6 6 7 8
34 33 33 32 32 31 30 29 30 29 29 28 27 26 25 23 23 22 20 20 19 20 19 18 16 13 13 12 13 13 9 6 5 5 4 5 6 7 9 9 10 11 11
35 34 35 34 34 35 33 31 31 31 31 30 30 29 29 28 28 26 24 21 20 22 22 20 18 16 14 13 12 11 8 5 5 5 6 7 8 9 10 10 9 8 9
37 35 36 38 36 36 35 35 34 34 34 32 31 30 29 28 28 28 28 25 22 22 25 23 23 19 17 15 13 10 7 5 5 7 7 7 7 7 7 7 7 7 7
37 39 38 38 39 38 37 38 39 38 37 36 34 31 31 31 30 27 26 28 26 27 27 28 27 25 22 17 14 11 9 7 7 7 7 7 7 7 7 6 6 6 5
36 38 37 37 39 40 41 40 39 38 37 35 34 33 31 30 30 27 27 24 27 27 29 30 30 28 26 22 18 14 11 10 8 9 9 8 8 8 7 7 7 7 6
33 34 36 35 35 36 41 41 42 38 36 35 32 31 30 29 27 26 26 27 28 29 33 34 33 32 29 26 22 19 14 12 11 10 10 10 10 10 8 8 8 7 7
27 26 22 18 22 28 35 31 31 32 30 29 26 25 25 24 23 23 25 27 31 36 36 36 36 37 35 31 28 23 18 16 14 12 12 12 13 12 10 10 9 8 7
23 27 19 11 15 22 29 24 23 22 21 21 23 23 20 18 19 21 25 30 32 36 39 41 40 41 37 37 32 27 20 18 16 15 14 16 15 14 13 12 10 10 8
26 25 33 44 16 49 40 21 20 18 19 20 19 18 19 20 23 21 20 25 31 34 36 41 42 40 41 40 36 31 23 21 20 18 17 17 17 15 14 13 12 10 10
22 24 24 29 33 36 24 17 16 16 15 13 12 12 9 13 15 17 18 19 20 25 31 38 46 48 46 41 38 34 28 23 22 20 19 19 19 17 15 15 13 12 11
16 18 20 21 20 14 14 13 14 14 14 14 15 15 15 17 18 18 20 20 20 27 33 39 46 53 54 48 39 39 33 26 24 22 21 20 20 19 17 16 14 13 12
15 16 17 15 14 16 15 15 15 15 16 17 19 20 21 21 21 21 20 20 27 30 35 35 37 47 48 52 41 36 34 26 24 19 19 19 20 20 17 16 16 14 13
11 11 12 13 13 15 17 16 16 15 16 17 17 17 18 18 16 14 16 19 24 27 29 24 24 30 40 39 40 35 31 24 21 18 17 20 20 19 19 18 17 15 14
7 10 10 11 11 13 15 15 15 15 15 15 15 16 16 19 20 20 21 20 20 20 25 19 17 20 27 27 34 31 26 23 19 19 21 21 20 20 20 19 18 16 15
10 10 11 12 13 13 13 12 11 10 10 11 15 15 16 17 17 17 18 14 13 12 13 5 10 10 15 23 25 25 26 25 22 19 17 21 23 22 22 21 19 17 16
Wind_Direction
216 221 222 222 224 221 223 222 226 234 238 242 238 230 213 209 211 209 212 223 220 228 250 265 266 271 274 285 288 287 284 281 277 285 297 293 285 274 271 268 287 266 298
207 212 220 221 224 223 221 220 222 232 236 243 237 225 215 205 205 212 213 222 228 242 267 284 279 295 298 297 295 289 281 278 283 291 285 300 290 272 266 259 269 288 302
213 213 216 221 221 222 220 221 216 226 240 247 243 232 215 207 203 205 212 224 243 256 278 281 299 305 306 298 293 291 285 286 290 288 291 301 303 294 271 261 266 281 281
215 216 218 217 222 220 218 220 217 223 233 248 276 200 194 198 202 202 220 234 240 242 257 281 299 312 305 293 286 280 282 286 288 288 290 295 302 300 297 266 278 273 278
215 218 220 218 222 223 220 219 216 218 220 221 195 180 186 193 200 210 218 217 219 229 258 257 311 323 316 289 282 287 285 292 290 291 289 291 292 298 281 277 282 287 292
218 220 222 219 221 222 220 219 216 214 213 217 204 194 192 197 202 206 200 202 217 227 233 258 316 336 330 327 318 309 299 293 292 284 283 280 286 283 274 271 280 283 275
221 219 223 222 220 221 219 219 218 214 213 213 208 200 199 200 200 194 201 209 219 230 222 250 299 328 328 309 316 316 312 308 296 283 270 275 287 285 276 281 286 294 298
216 216 217 222 219 218 217 219 219 217 215 213 209 203 202 203 201 201 205 216 226 225 226 240 269 306 330 321 317 312 312 310 300 284 275 261 262 269 281 286 290 293 302
213 211 209 215 213 211 213 214 215 216 215 212 210 210 210 210 209 212 216 222 221 225 231 235 251 278 311 319 322 318 316 310 303 286 275 268 263 268 271 287 298 294 299
207 206 206 212 210 208 209 211 213 215 215 214 215 216 217 215 219 222 223 225 224 229 232 238 247 264 293 310 320 321 317 311 301 291 283 289 274 264 264 277 273 289 297
201 205 205 208 209 209 210 211 212 213 214 212 214 216 220 217 222 225 227 231 232 235 236 239 244 258 279 298 317 322 315 308 300 283 260 251 273 268 276 269 273 281 290
204 204 206 207 209 211 212 213 217 217 218 218 219 221 222 221 225 225 229 232 234 233 235 241 244 254 270 291 310 319 309 299 296 269 236 237 251 264 273 274 278 284 289
208 208 209 211 211 213 213 215 219 224 225 224 225 227 232 230 228 226 227 231 236 231 232 235 239 245 260 277 295 304 297 281 262 256 245 256 263 274 278 280 287 296 296
210 212 213 213 214 218 218 221 224 226 226 228 230 231 234 238 236 234 233 230 229 227 232 237 239 245 250 257 274 286 279 267 260 264 260 259 260 264 262 267 276 286 291
213 218 218 217 216 218 220 223 226 228 231 232 233 235 236 240 246 249 245 240 239 235 235 236 238 242 244 252 258 265 267 256 263 259 253 259 254 247 250 262 273 285 283
219 221 222 221 221 221 224 226 230 232 235 238 240 244 249 251 258 254 251 250 244 245 241 240 241 243 244 247 250 254 258 256 257 256 250 249 244 244 249 259 267 271 278
229 225 223 223 223 222 228 231 232 237 242 244 245 248 249 254 252 253 244 244 248 242 236 239 242 243 242 245 246 249 253 251 250 250 247 244 242 241 242 250 258 263 276
228 228 226 232 238 232 235 238 237 238 243 249 251 249 247 247 246 242 232 235 239 234 236 237 242 242 239 236 239 238 244 248 248 249 244 240 237 239 241 242 252 256 260
218 203 189 262 274 270 251 228 226 227 229 235 243 247 245 235 239 243 239 239 241 238 239 240 240 243 241 239 237 233 237 245 245 245 241 238 236 238 237 244 249 251 258
207 211 199 209 204 233 240 207 213 217 224 230 238 233 230 229 238 246 247 246 245 245 249 248 246 246 244 241 240 232 230 239 240 243 240 238 238 234 238 247 249 250 257
195 192 187 188 198 207 209 208 214 214 215 216 216 224 226 237 242 251 257 260 264 265 266 260 254 250 247 246 238 233 234 234 235 237 237 233 234 233 236 243 246 251 250
173 178 176 184 192 197 200 195 203 214 220 223 230 237 239 242 248 252 255 261 271 283 281 270 262 256 247 242 234 232 231 234 232 233 231 232 234 229 236 238 244 246 252
176 182 182 181 188 193 199 211 222 228 232 234 237 245 247 249 249 252 252 267 292 293 289 278 266 260 259 245 233 231 233 230 229 233 229 233 233 232 236 236 240 244 250
175 178 189 188 197 203 212 219 225 236 240 237 243 246 251 245 234 246 261 300 308 306 298 273 269 272 255 250 227 218 222 213 218 223 229 234 228 233 233 233 240 244 248
196 193 195 196 201 208 215 226 235 242 244 239 248 254 257 244 247 262 277 293 311 321 305 267 274 271 265 242 205 207 211 204 210 220 234 228 229 233 233 234 238 243 243
220 213 206 209 211 216 222 227 232 243 253 255 253 258 261 260 263 272 272 277 303 316 349 322 261 269 231 204 203 200 195 204 217 231 227 227 231 230 231 232 237 240 239